Погода в Кингисеппе

Погода в Кингисеппе : погода сейчас, прогноз погоды и архив. Всё, что Вы хотите узнать о погоде в Кингисеппе!

Поиск расширенной информации на нашем сайте:

Другие новости

Новости СМИ2

Главная страница сайта

Новости сайта

03.07.2017

Напоминаем, что на нашем специализированном сайте Метеоцентр.Азия вы можете получить высокодетализированные автоматические прогнозы погоды по пунктам России, СНГ и мира в авиационном формате (включающие направление и скорость ветра, видимость, явления погоды, количество и форму облачности, нижнюю и верхнюю границу облачности).


Погода в Кингисеппе - сегодня

Время (UTC), дата Ветер
(°,м/с) 
Видим.   Явления Облачность Т
(°С)
Тd
(°С)
f(%) Тe
(°С)
Pmin
(гПа)
dP
(гПа)
Po
(мм)
O2
(г/м3)
Тmin Tmax R s Состояние
почвы
00 14.06.18 100 (В) 10 км    5/0 средняя 
[Ac trans]
+7 +5.3 89 +8  1012.8  0.9  758  297           
09 14.06.18 110 (В) 20000 м    3/1 600 м средняя, верхняя 
[Cu med, cong|Ac trans|Cc]
+20.4 +5.8 38 +20  1014  0.1  759  284           
12 14.06.18 090 (В) 20000 м    6/6 600 м 
[Cu med, cong]
+22.7 +5.5 33 +23  1013.4  -0.6  758  281           
15 14.06.18 100 (В) 20000 м    5/5 600 м 
[Cu med, cong]
+23.3 +5.9 32 +23  1012.7  -0.7  758  280           
21 14.06.18 120 (ЮВ) 10 км    1/0 верхняя 
[Ci fib]
+15.3 +12.2 82 +20  1014.3  1.1  759  287           
00 15.06.18 110 (В) 10 км    ясно 
+12.5 +11.9 96 +18  1014.4  0.1  759  290           
09 15.06.18 200 (Ю) 20000 м    6/3 1000 м средняя, верхняя 
[Cu med, cong|Ac trans|Cc]
+24.2 +11.8 46 +28  1015  0.4  759  279           
12 15.06.18 180 (Ю) 20000 м    4/3 1000 м верхняя 
[Cu Sc|Ci fib]
+25.1 +10.3 39 +26  1015  0.1  760  278           
15 15.06.18 220 (ЮЗ) 20000 м    6/3 1000 м средняя, верхняя 
[Cu Sc|Ac trans|Ci fib]
+25.7 +9.9 37 +27  1015  760  278           
21 15.06.18 040 (СВ) 10 км    10/10 700 м кучево-дожд. 
[Cb cap]
+18.5 +12.3 67 +24  1017.1  1.4  761  285           
00 16.06.18 030 (СВ) 10 км    10/1 600 м средняя 
[Sc|Ac As]
+16.7 +12.3 75 +22  1017.7  0.6  761  287           
09 16.06.18 140 (ЮВ) 20000 м    9/1 1000 м средняя, верхняя 
[Cu hum|Ac trans|Ci fib]
+24.8 +9.3 37 +25  1018.2  -0.3  762  280           
12 16.06.18 190 (Ю) 20000 м    10/3 600 м верхняя 
[Cu med, cong|Ci]
+26.5 +7.7 30 +27  1017.5  -0.6  761  278           
15 16.06.18 160 (Ю) 20000 м    10/4 600 м кучево-дожд., средняя, верхняя 
[Cb cap|Ac trans|Ci fib]
+24.4 +8.5 36 +24  1017.1  -0.4  761  280           
21 16.06.18 тихо ()   10 км    8/3 600 м средняя, верхняя 
[Sc|Ac trans|Ci fib]
+15.3 +11.2 77 +18  1018.6  762  289           
00 17.06.18 тихо ()   10 км    8/4 600 м средняя, верхняя 
[Sc|Ac trans|Ci fib]
+14.9 +11.9 82 +18  1018.8  0.3  762  289           
09 17.06.18 110 (В) 20000 м    8/0 средняя, верхняя 
[Ac As|Ci sp]
+22 +11 50 +24  1018  -0.5  762  282           
12 17.06.18 140 (ЮВ) 20000 м    8/3 600 м средняя 
[Sc diur, vesp|Ac trans]
+23.4 +13.5 54 +29  1016.6  -1.4  761  280           
21 17.06.18 140 (ЮВ) 10 км    10/3 600 м кучево-дожд., средняя, верхняя 
[Cb cap|Ac trans|Ci fib]
+18.4 +15.7 84 +30  1015.8  760  284           
00 18.06.18 120 (ЮВ) 10 км    10/1 600 м средняя, верхняя 
[Sc|Ac trans|Ci]
+15 +15 100 +24  1015.4  -0.4  760  287           
09 18.06.18 200 (Ю) 20000 м    8/8 960 м 
[Cu med, cong]
+24.7 +16.1 59 +35  1013.4  -0.8  758  277           
12 18.06.18 200 (Ю) 20000 м    8/1 600 м средняя, верхняя 
[Cu med, cong|Ac trans|Ci fib]
+26.6 +10.6 37 +28  1012.6  -0.7  758  276           
15 18.06.18 300 (СЗ) 20000 м    10/4 600 м кучево-дожд., верхняя 
[Cb cap|Ci]
+23.4 +15.3 60 +32  1012.3  -0.3  758  278           
21 18.06.18 тихо ()   10 км    10/8 870 м кучево-дожд., средняя 
[Cb cap|Ac und]
+14.1 +11.6 85 +17  1013.5  0.9  758  288           
00 19.06.18 180 (Ю) 10 км    6/0 средняя 
[Ac trans]
+12.8 +11.4 91 +17  1012.4  -1.2  758  289           
Время (UTC), дата Ветер
(°,м/с) 
Видим.   Явления Облачность Т
(°С)
Тd
(°С)
f(%) Тe
(°С)
Pmin
(гПа)
dP
(гПа)
Po
(мм)
O2
(г/м3)
Тmin Tmax R s Состояние
почвы

Для получения пояснительной информации подведите курсор к названию столбца.

ПОГОДА в Кингисеппе - архив

Всё, что Вы хотите узнать о погоде в Кингисеппе - удобно и подробно!

Выберите нужную дату (начиная с 1 января 2015* года) и нажмите кнопку "Найти".
Будут отображены архивные сводки погоды по пункту Кингисепп, начиная с указанной даты.


Отображать данные в формате CSV (для использования в таблицах Excel)


Внимание! Наш архив погоды предназначен исключительно для личного некоммерческого использования в познавательных целях. Если Вам необходимы официальные справки о состоянии погоды (для производственных, юридических, коммерческих и т.п. целей), обращайтесь в органы Росгидромета.

*Примечание: данная дата относится к архиву по метеостанциям СССР (Россия, СНГ, Балтия).
Архив по метеостанциям Зарубежной Европы и Азии (кроме Китая) хранится 10 дней, по другим регионам земного шара (Китай, Африка, Америка, Австралия, Океания) - 1 день.

Кингисепп - район местоположения метеостанции


Название, широта, долгота, высота метеостанции:
Кингисепп 59.4°ш. 28.6°д. 19 м над ур. моря [Российская Федерация]

Дополнительная информация

В oтличие oт бoльшинства пoгoдных сайтoв мы публикуем пoдрoбную метеoинфoрмацию в детальнoм прoфессиoнальнoм фoрмате.

Характеристики температуры и влажнoсти вoздуха измеряются на высoте 2 м в тени вдали oт зданий и деревьев.
Скoрoсть ветра измеряется на высoте 10 м (на урoвне рoста челoвека скoрoсть ветра ниже в 1.5-2 раза). Если метеoстанция нахoдится в гoрoде или в лесу, тo скoрoсть ветра занижена на 2-4 м/с пo сравнению с oткрытым местoм. Скoрoсть ветра над акватoриями крупных рек и oзёр, а также на вершинах хoлмoв на 2-5 м/с выше, чем в oбычных услoвиях.
Атмoсфернoе давление в разных тoчках местнoсти мoжет значительнo oтличаться oт давления на метеoстанции, в зависимoсти oт услoвий рельефа (при пoдъёме на 10 м давление пoнижается примернo на 1 мм рт.ст.).